This is the latest recevied weather packets stored in our database for station/object K1JO. If no packets are shown the sender has not sent any weather packets the latest 10 day(s).
| Time | Temp. | Humidity | Pressure | Rain* | Wind** | Luminosity | Snow |
|---|---|---|---|---|---|---|---|
| 1777858267 | 4.44° C | 87% | 1000.3 hPa | 0 mm | - | 0 W/m² | - |
| 1777857964 | 4.44° C | 89% | 1000.2 hPa | 0 mm | - | 0 W/m² | - |
| 1777857662 | 5° C | 89% | 1000.2 hPa | 0 mm | - | 0 W/m² | - |
| 1777857359 | 5° C | 87% | 999.8 hPa | 0 mm | - | 0 W/m² | - |
| 1777857055 | 5.56° C | 86% | 999.8 hPa | 0 mm | - | 0 W/m² | - |
| 1777856751 | 5.56° C | 85% | 999.8 hPa | 0 mm | - | 0 W/m² | - |
| 1777856447 | 5.56° C | 87% | 999.8 hPa | 0 mm | - | 0 W/m² | - |
| 1777856144 | 5.56° C | 90% | 999.7 hPa | 0 mm | - | 0 W/m² | - |
| 1777855841 | 5° C | 92% | 999.6 hPa | 0 mm | - | 0 W/m² | - |
| 1777855539 | 5° C | 96% | 999.7 hPa | 0 mm | - | 0 W/m² | - |
| 1777855236 | 5° C | 98% | 999.5 hPa | 0 mm | - | 0 W/m² | - |
| 1777854932 | 5° C | 99% | 999.1 hPa | 0 mm | - | 0 W/m² | - |
| 1777854629 | 5° C | 99% | 999 hPa | 0 mm | - | 0 W/m² | - |
| 1777854326 | 5° C | 99% | 999 hPa | 0 mm | - | 0 W/m² | - |
| 1777854023 | 5° C | 99% | 999.2 hPa | 0 mm | - | 0 W/m² | - |
| 1777853721 | 5.56° C | 99% | 999.2 hPa | 0 mm | - | 0 W/m² | - |
| 1777853417 | 5.56° C | 99% | 998.9 hPa | 0 mm | - | 0 W/m² | - |
| 1777853114 | 5.56° C | 99% | 999 hPa | 0 mm | - | 0 W/m² | - |
| 1777852812 | 6.11° C | 99% | 998.9 hPa | 0 mm | - | 0 W/m² | - |
| 1777852510 | 6.11° C | 98% | 998.8 hPa | 0 mm | - | 1 W/m² | - |
| 1777852206 | 6.11° C | 98% | 998.8 hPa | 0 mm | - | 1 W/m² | - |
| 1777851904 | 6.11° C | 97% | 998.6 hPa | 0 mm | - | 3 W/m² | - |
| 1777851602 | 6.67° C | 97% | 998.6 hPa | 0 mm | - | 5 W/m² | - |
| 1777851298 | 6.67° C | 96% | 998.6 hPa | 0 mm | - | 9 W/m² | - |
| 1777850994 | 6.67° C | 95% | 998.5 hPa | 0 mm | - | 13 W/m² | - |
* Rain latest hour (hover to see other rain measurements)
** Current wind speed in m/s (hover to see current wind gust speed)